Location: La Silve
(44.2414°N, 5.8889°E)
Time: 20:29:44
(UTC+00:00)

CENTAUR R/B - Pass Details

Date: 16 April 2021
Orbit: 742 x 1446 km, 63.4° (Epoch: 18 April)

Event Time Altitude Azimuth Distance (km) Brightness Sun altitude
Rises 20:18:23 0° 314° (NW) 4,286 7.5 -19.4°
Reaches altitude 10° 20:21:37 10° 303° (WNW) 3,397 6.5 -19.8°
Maximum altitude 20:28:20 27° 251° (WSW) 2,440 4.8 -20.8°
Drops below altitude 10° 20:35:21 10° 198° (SSW) 3,552 5.2 -21.7°
Enters shadow 20:37:44 - 190° (S) 4,197 5.5 -22.0°
